This is the latest recevied weather packets stored in our database for station/object vk4zu-13. If no packets are shown the sender has not sent any weather packets the latest 10 day(s).
| Time | Temp. | Humidity | Pressure | Rain* | Wind** | Luminosity | Snow |
|---|---|---|---|---|---|---|---|
| 1777266111 | 22.22° C | 74% | 1020.6 hPa | 0 mm | - | 399 W/m² | - |
| 1777266051 | 22.22° C | 76% | 1020.7 hPa | 0 mm | - | 399 W/m² | - |
| 1777265994 | 22.22° C | 75% | 1020.6 hPa | 0 mm | - | 246 W/m² | - |
| 1777265928 | 22.22° C | 76% | 1020.6 hPa | 0 mm | - | 246 W/m² | - |
| 1777265867 | 22.22° C | 75% | 1020.7 hPa | 0 mm | - | 413 W/m² | - |
| 1777265797 | 22.22° C | 80% | 1020.8 hPa | 0 mm | - | 413 W/m² | - |
| 1777265727 | 22.22° C | 78% | 1020.8 hPa | 0 mm | - | 316 W/m² | - |
| 1777265663 | 22.22° C | 77% | 1020.8 hPa | 0 mm | - | 316 W/m² | - |
| 1777265604 | 22.22° C | 77% | 1020.7 hPa | 0 mm | - | 278 W/m² | - |
| 1777265542 | 22.22° C | 76% | 1020.7 hPa | 0 mm | - | 281 W/m² | - |
| 1777265472 | 22.22° C | 76% | 1020.7 hPa | 0 mm | - | 476 W/m² | - |
| 1777265401 | 22.22° C | 76% | 1020.7 hPa | 0 mm | - | 573 W/m² | - |
| 1777265332 | 22.78° C | 76% | 1020.7 hPa | 0 mm | - | 656 W/m² | - |
| 1777265261 | 22.78° C | 78% | 1020.7 hPa | 0 mm | - | 656 W/m² | - |
| 1777265192 | 22.22° C | 79% | 1020.7 hPa | 0 mm | - | 677 W/m² | - |
| 1777265122 | 22.22° C | 80% | 1020.7 hPa | 0 mm | - | 469 W/m² | - |
| 1777265050 | 22.22° C | 80% | 1020.6 hPa | 0 mm | - | 374 W/m² | - |
| 1777264989 | 21.67° C | 79% | 1020.6 hPa | 0 mm | - | 455 W/m² | - |
| 1777264929 | 21.67° C | 78% | 1020.6 hPa | 0 mm | - | 244 W/m² | - |
| 1777264859 | 21.11° C | 80% | 1020.7 hPa | 0 mm | - | 244 W/m² | - |
| 1777264789 | 20.56° C | 80% | 1020.7 hPa | 0 mm | - | 244 W/m² | - |
| 1777264720 | 20.56° C | 80% | 1020.8 hPa | 0 mm | - | 403 W/m² | - |
| 1777264650 | 21.11° C | 84% | 1020.7 hPa | 0 mm | - | 269 W/m² | - |
| 1777264580 | 21.11° C | 84% | 1020.7 hPa | 0 mm | - | 269 W/m² | - |
| 1777264508 | 21.11° C | 85% | 1020.8 hPa | 0 mm | - | 250 W/m² | - |
* Rain latest hour (hover to see other rain measurements)
** Current wind speed in m/s (hover to see current wind gust speed)